Time,TemperatureF,DewpointF,PressureIn,WindDirection,WindDirectionDegrees,WindSpeedMPH,WindSpeedGustMPH,Humidity,HourlyPrecipIn,Conditions,Clouds,dailyrainin,SoftwareType,DateUTC
2015-07-06 00:03:00,85.0,78.0,30.14,NW,322,0.0,4.0,80,-99.99,,,-99.99,,2015-07-06 04:03:00,
2015-07-06 00:13:00,85.0,78.0,30.14,NW,322,0.0,4.0,80,-99.99,,,-99.99,,2015-07-06 04:13:00,
2015-07-06 00:23:00,85.0,78.0,30.14,NW,322,0.0,4.0,80,-99.99,,,-99.99,,2015-07-06 04:23:00,
2015-07-06 00:33:00,77.0,71.0,30.16,NNW,338,6.0,6.0,83,-99.99,,,-99.99,,2015-07-06 04:33:00,
2015-07-06 00:43:00,77.0,72.0,30.16,North,349,8.0,8.0,84,-99.99,,,-99.99,,2015-07-06 04:43:00,
2015-07-06 00:54:00,76.0,73.0,30.15,NNW,342,4.0,10.0,89,-99.99,,,-99.99,,2015-07-06 04:54:00,
2015-07-06 01:04:00,76.0,73.0,30.15,NNW,342,4.0,10.0,89,-99.99,,,-99.99,,2015-07-06 05:04:00,
2015-07-06 01:13:00,76.0,73.0,30.15,NNW,342,4.0,10.0,89,-99.99,,,-99.99,,2015-07-06 05:13:00,
2015-07-06 01:23:00,74.0,71.0,30.14,North,4,4.0,4.0,91,-99.99,,,-99.99,,2015-07-06 05:23:00,
2015-07-06 01:33:00,74.0,71.0,30.13,North,353,0.0,0.0,91,-99.99,,,-99.99,,2015-07-06 05:33:00,
2015-07-06 01:44:00,74.0,71.0,30.13,NNE,18,5.0,5.0,90,-99.99,,,-99.99,,2015-07-06 05:44:00,
2015-07-06 01:53:00,74.0,71.0,30.14,NW,315,0.0,0.0,90,-99.99,,,-99.99,,2015-07-06 05:53:00,
2015-07-06 02:03:00,74.0,71.0,30.13,NE,39,2.0,0.0,90,-99.99,,,-99.99,,2015-07-06 06:03:00,
2015-07-06 02:13:00,75.0,72.0,30.12,NNE,17,0.0,0.0,89,-99.99,,,-99.99,,2015-07-06 06:13:00,
2015-07-06 02:23:00,75.0,72.0,30.12,NNE,30,1.0,1.0,89,-99.99,,,-99.99,,2015-07-06 06:23:00,
2015-07-06 02:34:00,75.0,71.0,30.11,NW,321,1.0,0.0,88,-99.99,,,-99.99,,2015-07-06 06:34:00,
2015-07-06 02:43:00,75.0,71.0,30.11,NW,321,1.0,0.0,88,-99.99,,,-99.99,,2015-07-06 06:43:00,
2015-07-06 02:53:00,75.0,71.0,30.10,NNW,347,0.0,0.0,88,-99.99,,,-99.99,,2015-07-06 06:53:00,
2015-07-06 03:03:00,75.0,71.0,30.09,North,8,0.0,0.0,88,-99.99,,,-99.99,,2015-07-06 07:03:00,
2015-07-06 03:13:00,75.0,71.0,30.09,North,8,0.0,0.0,88,-99.99,,,-99.99,,2015-07-06 07:13:00,
2015-07-06 03:33:00,75.0,71.0,30.09,North,11,0.0,0.0,88,-99.99,,,-99.99,,2015-07-06 07:33:00,
2015-07-06 03:43:00,75.0,71.0,30.09,North,11,0.0,0.0,88,-99.99,,,-99.99,,2015-07-06 07:43:00,
2015-07-06 03:53:00,75.0,71.0,30.09,North,11,0.0,0.0,88,-99.99,,,-99.99,,2015-07-06 07:53:00,
2015-07-06 04:03:00,75.0,71.0,30.09,North,11,0.0,0.0,88,-99.99,,,-99.99,,2015-07-06 08:03:00,
2015-07-06 04:12:00,75.0,71.0,30.09,North,11,0.0,0.0,88,-99.99,,,-99.99,,2015-07-06 08:12:00,
2015-07-06 04:44:00,74.0,71.0,30.07,South,183,0.0,0.0,91,-99.99,,,-99.99,,2015-07-06 08:44:00,
2015-07-06 04:53:00,74.0,71.0,30.07,South,183,0.0,0.0,91,-99.99,,,-99.99,,2015-07-06 08:53:00,
2015-07-06 05:03:00,74.0,71.0,30.06,South,183,0.0,0.0,91,-99.99,,,-99.99,,2015-07-06 09:03:00,
2015-07-06 05:12:00,75.0,72.0,30.06,ESE,120,0.0,1.0,91,-99.99,,,-99.99,,2015-07-06 09:12:00,
2015-07-06 05:23:00,75.0,72.0,30.04,SE,131,4.0,5.0,91,-99.99,,,-99.99,,2015-07-06 09:23:00,
2015-07-06 05:33:00,76.0,73.0,30.04,SE,134,4.0,7.0,89,-99.99,,,-99.99,,2015-07-06 09:33:00,
2015-07-06 05:43:00,77.0,73.0,30.04,SE,136,4.0,6.0,87,-99.99,,,-99.99,,2015-07-06 09:43:00,
2015-07-06 05:53:00,77.0,73.0,30.04,SE,136,4.0,6.0,87,-99.99,,,-99.99,,2015-07-06 09:53:00,
2015-07-06 06:03:00,78.0,73.0,30.03,SSE,153,5.0,5.0,86,-99.99,,,-99.99,,2015-07-06 10:03:00,
2015-07-06 06:13:00,79.0,74.0,30.03,SE,134,4.0,5.0,84,-99.99,,,-99.99,,2015-07-06 10:13:00,
2015-07-06 06:23:00,80.0,74.0,30.02,SE,132,7.0,7.0,81,-99.99,,,-99.99,,2015-07-06 10:23:00,
2015-07-06 06:33:00,80.0,74.0,30.03,SE,124,8.0,8.0,82,-99.99,,,-99.99,,2015-07-06 10:33:00,
2015-07-06 06:43:00,81.0,75.0,30.03,SE,135,6.0,6.0,83,-99.99,,,-99.99,,2015-07-06 10:43:00,
2015-07-06 06:53:00,81.0,75.0,30.03,SE,135,6.0,6.0,83,-99.99,,,-99.99,,2015-07-06 10:53:00,
2015-07-06 07:03:00,81.0,75.0,30.05,East,97,4.0,4.0,83,-99.99,,,-99.99,,2015-07-06 11:03:00,
2015-07-06 07:13:00,81.0,75.0,30.05,East,97,4.0,4.0,83,-99.99,,,-99.99,,2015-07-06 11:13:00,
2015-07-06 07:23:00,81.0,76.0,30.06,SE,135,2.0,2.0,85,-99.99,,,-99.99,,2015-07-06 11:23:00,
2015-07-06 07:34:00,81.0,76.0,30.06,South,181,0.0,0.0,84,-99.99,,,-99.99,,2015-07-06 11:34:00,
2015-07-06 07:43:00,81.0,76.0,30.07,SE,143,1.0,1.0,84,-99.99,,,-99.99,,2015-07-06 11:43:00,
2015-07-06 07:54:00,82.0,77.0,30.08,SSE,162,0.0,0.0,84,-99.99,,,-99.99,,2015-07-06 11:54:00,
2015-07-06 08:03:00,82.0,77.0,30.08,SSE,162,0.0,0.0,84,-99.99,,,-99.99,,2015-07-06 12:03:00,
2015-07-06 08:23:00,83.0,77.0,30.09,East,87,0.0,0.0,82,-99.99,,,-99.99,,2015-07-06 12:23:00,
2015-07-06 08:34:00,83.0,77.0,30.09,South,190,0.0,0.0,82,-99.99,,,-99.99,,2015-07-06 12:34:00,
2015-07-06 08:44:00,83.0,77.0,30.09,South,190,0.0,0.0,82,-99.99,,,-99.99,,2015-07-06 12:44:00,
2015-07-06 08:54:00,83.0,77.0,30.10,South,184,1.0,0.0,81,-99.99,,,-99.99,,2015-07-06 12:54:00,
2015-07-06 09:03:00,83.0,76.0,30.10,NNW,338,4.0,4.0,80,-99.99,,,-99.99,,2015-07-06 13:03:00,
2015-07-06 09:13:00,81.0,75.0,30.11,North,352,2.0,2.0,83,-99.99,,,-99.99,,2015-07-06 13:13:00,
2015-07-06 09:23:00,81.0,76.0,30.11,NW,311,3.0,3.0,84,-99.99,,,-99.99,,2015-07-06 13:23:00,
2015-07-06 09:33:00,82.0,77.0,30.11,NW,304,2.0,3.0,84,-99.99,,,-99.99,,2015-07-06 13:33:00,
2015-07-06 09:43:00,82.0,77.0,30.11,NW,304,2.0,3.0,84,-99.99,,,-99.99,,2015-07-06 13:43:00,
2015-07-06 09:53:00,82.0,77.0,30.11,NW,304,2.0,3.0,84,-99.99,,,-99.99,,2015-07-06 13:53:00,
2015-07-06 10:03:00,82.0,76.0,30.12,NNW,328,5.0,5.0,82,-99.99,,,-99.99,,2015-07-06 14:03:00,
2015-07-06 10:23:00,83.0,77.0,30.12,NE,37,2.0,2.0,82,-99.99,,,-99.99,,2015-07-06 14:23:00,
2015-07-06 10:31:00,85.0,77.0,30.12,North,10,3.0,3.0,77,-99.99,,,-99.99,,2015-07-06 14:31:00,
2015-07-06 10:33:00,83.0,77.0,30.12,NE,37,2.0,2.0,82,-99.99,,,-99.99,,2015-07-06 14:33:00,
2015-07-06 10:44:00,85.0,77.0,30.12,NE,48,3.0,3.0,77,-99.99,,,-99.99,,2015-07-06 14:44:00,
2015-07-06 10:53:00,85.0,77.0,30.12,North,10,3.0,3.0,77,-99.99,,,-99.99,,2015-07-06 14:53:00,
2015-07-06 11:03:00,85.0,77.0,30.12,North,10,3.0,3.0,77,-99.99,,,-99.99,,2015-07-06 15:03:00,
2015-07-06 11:13:00,85.0,77.0,30.12,North,10,3.0,3.0,77,-99.99,,,-99.99,,2015-07-06 15:13:00,
2015-07-06 11:23:00,85.0,77.0,30.12,North,10,3.0,3.0,77,-99.99,,,-99.99,,2015-07-06 15:23:00,
2015-07-06 11:44:00,87.0,76.0,30.12,ESE,108,3.0,3.0,70,-99.99,,,-99.99,,2015-07-06 15:44:00,
2015-07-06 12:03:00,87.0,76.0,30.12,ESE,108,3.0,3.0,70,-99.99,,,-99.99,,2015-07-06 16:03:00,
2015-07-06 12:13:00,87.0,76.0,30.12,ESE,108,3.0,3.0,70,-99.99,,,-99.99,,2015-07-06 16:13:00,
2015-07-06 12:34:00,88.0,77.0,30.13,SSW,204,3.0,3.0,70,-99.99,,,-99.99,,2015-07-06 16:34:00,
2015-07-06 12:44:00,88.0,77.0,30.13,SSW,204,3.0,3.0,70,-99.99,,,-99.99,,2015-07-06 16:44:00,
2015-07-06 12:54:00,88.0,76.0,30.13,ESE,121,3.0,3.0,67,-99.99,,,-99.99,,2015-07-06 16:54:00,
2015-07-06 13:04:00,88.0,77.0,30.13,South,181,3.0,5.0,70,-99.99,,,-99.99,,2015-07-06 17:04:00,
2015-07-06 13:14:00,89.0,77.0,30.13,SE,139,5.0,-999.0,67,-99.99,,,-99.99,,2015-07-06 17:14:00,
2015-07-06 13:24:00,89.0,77.0,30.13,SE,139,5.0,5.0,67,-99.99,,,-99.99,,2015-07-06 17:24:00,
2015-07-06 13:34:00,89.0,77.0,30.13,SE,139,5.0,5.0,67,-99.99,,,-99.99,,2015-07-06 17:34:00,
2015-07-06 13:44:00,89.0,76.0,30.12,East,94,6.0,6.0,66,-99.99,,,-99.99,,2015-07-06 17:44:00,
2015-07-06 13:54:00,89.0,76.0,30.12,East,94,6.0,6.0,66,-99.99,,,-99.99,,2015-07-06 17:54:00,
2015-07-06 14:04:00,89.0,76.0,30.12,East,94,6.0,6.0,66,-99.99,,,-99.99,,2015-07-06 18:04:00,
2015-07-06 14:13:00,89.0,76.0,30.12,East,94,6.0,6.0,66,-99.99,,,-99.99,,2015-07-06 18:13:00,
2015-07-06 14:24:00,90.0,75.0,30.11,East,83,3.0,3.0,62,-99.99,,,-99.99,,2015-07-06 18:24:00,
2015-07-06 14:34:00,90.0,75.0,30.11,East,83,3.0,3.0,62,-99.99,,,-99.99,,2015-07-06 18:34:00,
2015-07-06 14:44:00,90.0,75.0,30.11,East,83,3.0,3.0,62,-99.99,,,-99.99,,2015-07-06 18:44:00,
2015-07-06 14:54:00,90.0,75.0,30.11,East,83,3.0,3.0,62,-99.99,,,-99.99,,2015-07-06 18:54:00,
2015-07-06 15:03:00,90.0,75.0,30.11,East,83,3.0,3.0,62,-99.99,,,-99.99,,2015-07-06 19:03:00,
2015-07-06 17:23:00,88.0,77.0,30.09,ESE,117,4.0,4.0,69,-99.99,,,-99.99,,2015-07-06 21:23:00,
2015-07-06 17:34:00,88.0,77.0,30.09,ESE,117,4.0,4.0,69,-99.99,,,-99.99,,2015-07-06 21:34:00,
2015-07-06 17:44:00,88.0,77.0,30.09,SE,134,5.0,5.0,69,-99.99,,,-99.99,,2015-07-06 21:44:00,
2015-07-06 17:55:00,88.0,77.0,30.09,SE,134,5.0,5.0,69,-99.99,,,-99.99,,2015-07-06 21:55:00,
2015-07-06 18:03:00,88.0,77.0,30.09,SE,134,5.0,5.0,69,-99.99,,,-99.99,,2015-07-06 22:03:00,
2015-07-06 18:13:00,88.0,77.0,30.09,SE,134,5.0,5.0,69,-99.99,,,-99.99,,2015-07-06 22:13:00,
2015-07-06 19:13:00,87.0,77.0,30.07,SE,127,3.0,7.0,72,-99.99,,,-99.99,,2015-07-06 23:13:00,
2015-07-06 19:23:00,87.0,77.0,30.07,SW,222,4.0,6.0,72,-99.99,,,-99.99,,2015-07-06 23:23:00,
2015-07-06 19:34:00,87.0,77.0,30.07,SSE,153,3.0,3.0,72,-99.99,,,-99.99,,2015-07-06 23:34:00,
2015-07-06 19:44:00,87.0,77.0,30.07,SSE,153,3.0,3.0,72,-99.99,,,-99.99,,2015-07-06 23:44:00,
2015-07-06 19:53:00,87.0,77.0,30.07,SSE,153,3.0,3.0,72,-99.99,,,-99.99,,2015-07-06 23:53:00,
2015-07-06 20:03:00,86.0,76.0,30.08,East,80,3.0,5.0,72,-99.99,,,-99.99,,2015-07-07 00:03:00,
2015-07-06 20:23:00,86.0,76.0,30.08,East,80,3.0,5.0,72,-99.99,,,-99.99,,2015-07-07 00:23:00,
2015-07-06 20:33:00,86.0,76.0,30.08,East,80,3.0,5.0,72,-99.99,,,-99.99,,2015-07-07 00:33:00,
2015-07-06 20:43:00,86.0,76.0,30.08,East,80,3.0,5.0,72,-99.99,,,-99.99,,2015-07-07 00:43:00,